Weather History for Covington, KY

Change the Weather History Date:

Tuesday, July 9, 2013

  Actual Average Record
Temperature  
Mean Temperature 82 °F 76 °F  
Max Temperature 89 °F 86 °F 103 °F (1988)
Min Temperature 74 °F 66 °F 51 °F (1918)
Degree Days  
Heating Degree Days 0 0  
Month to date heating degree days 0 0  
Since 1 June heating degree days 1 15  
Since 1 July heating degree days 0 0  
Cooling Degree Days 17 11  
Month to date cooling degree days 79 97  
Year to date cooling degree days 457 417  
Since 1 June cooling degree days 318 323  
Growing Degree Days 31 (Base 50)    
Moisture  
Dew Point 73 °F    
Average Humidity 76    
Maximum Humidity 93    
Minimum Humidity 59    
Precipitation  
Precipitation 0.08 in 0.13 in 1.22 in (2003)
Month to date precipitation 3.83 1.07  
Year to date precipitation 27.73 23.69  
Snow  
Snow 0.00 in 0.00 in 0.00 in ()
Month to date snowfall 0.0 0.0  
Since 1 June snowfall 0.0 0.0  
Since 1 July snowfall 0.0 0.0  
Snow Depth 0.00 in    
Sea Level Pressure  
Sea Level Pressure 30.05 in    
Wind  
Wind Speed 7 mph (SW)    
Max Wind Speed 16 mph    
Max Gust Speed 22 mph    
Visibility 9 miles    
Events Rain , Thunderstorm    
T = Trace of Precipitation, MM = Missing Value Source: NWS Daily Summary

Daily Weather History Graph

Daily Weather History Graph

Search for Another Location

Airport:

Trip Planner

Search our weather history database for the weather conditions in past years. The results will help you decide how hot, cold, wet, or windy it might be!

Date:

Astronomy

Jul. 09, 2013 Rise Set
Actual Time 6:21 AM EDT 9:06 PM EDT
Civil Twilight 5:49 AM EDT 9:37 PM EDT
Nautical Twilight 5:10 AM EDT 10:17 PM EDT
Astronomical Twilight 4:25 AM EDT 11:02 PM EDT
Moon 7:43 AM EDT (7/9) 9:44 PM EDT (7/9)
Length of Visible Light 15h 48m
Length of Day
14h 45m
New Moon, 2% of the Moon is Illuminated
Jul 9
New Moon
Jul 15
First Quarter
Jul 22
Full
Jul 29
Last Quarter
Aug 6
New

Hourly Weather History & Observations

Time (EDT) Temp. Heat Index Dew Point Humidity Pressure Visibility Wind Dir Wind Speed Gust Speed Precip Events Conditions
12:52 AM 77.0 °F - 71.1 °F 82% 30.08 in 10.0 mi SSW 5.8 mph - N/A   Overcast
1:52 AM 75.0 °F - 71.1 °F 87% 30.07 in 10.0 mi South 5.8 mph - N/A   Overcast
2:52 AM 75.9 °F - 71.1 °F 85% 30.05 in 10.0 mi SSW 6.9 mph - N/A   Overcast
3:52 AM 75.0 °F - 71.1 °F 87% 30.06 in 10.0 mi SSW 5.8 mph - 0.00 in Rain Light Rain
4:52 AM 75.0 °F - 71.1 °F 87% 30.06 in 9.0 mi SSW 5.8 mph - 0.00 in   Overcast
5:52 AM 73.9 °F - 72.0 °F 93% 30.06 in 8.0 mi SSW 6.9 mph - N/A   Mostly Cloudy
6:52 AM 75.0 °F - 72.0 °F 90% 30.07 in 8.0 mi SW 6.9 mph - 0.00 in   Overcast
7:52 AM 75.9 °F - 72.0 °F 87% 30.08 in 9.0 mi SW 8.1 mph - N/A   Mostly Cloudy
8:52 AM 77.0 °F - 72.0 °F 84% 30.07 in 9.0 mi SW 5.8 mph - N/A   Mostly Cloudy
9:52 AM 81.0 °F 85.8 °F 73.0 °F 77% 30.08 in 10.0 mi SW 6.9 mph - N/A   Scattered Clouds
10:52 AM 82.9 °F 89.4 °F 73.9 °F 74% 30.06 in 10.0 mi West 9.2 mph - N/A   Scattered Clouds
11:52 AM 84.9 °F 92.1 °F 73.9 °F 69% 30.06 in 10.0 mi West 13.8 mph - N/A   Partly Cloudy
12:52 PM 87.1 °F 94.5 °F 73.0 °F 63% 30.05 in 10.0 mi West 12.7 mph 20.7 mph N/A   Scattered Clouds
1:52 PM 89.1 °F 98.0 °F 73.9 °F 61% 30.05 in 10.0 mi West 9.2 mph - N/A   Mostly Cloudy
2:33 PM 87.8 °F 95.6 °F 73.4 °F 62% 30.08 in 10.0 mi West 10.4 mph - N/A Thunderstorm Thunderstorm
2:44 PM 80.6 °F 85.4 °F 73.4 °F 79% 30.09 in 2.5 mi WNW 4.6 mph 21.9 mph 0.05 in Rain , Thunderstorm Heavy Thunderstorms and Rain
2:50 PM 80.6 °F 85.4 °F 73.4 °F 79% 30.08 in 6.0 mi South 4.6 mph - 0.08 in Rain , Thunderstorm Thunderstorms and Rain
2:52 PM 81.0 °F 86.7 °F 75.0 °F 82% 30.05 in 7.0 mi SSW 3.5 mph - 0.08 in Rain , Thunderstorm Thunderstorms and Rain
3:26 PM 80.6 °F 88.1 °F 78.8 °F 94% 30.06 in 8.0 mi SSW 3.5 mph - 0.00 in Rain Light Rain
3:52 PM 82.9 °F 92.8 °F 78.1 °F 85% 30.02 in 10.0 mi South 3.5 mph - 0.00 in   Mostly Cloudy
4:52 PM 86.0 °F 96.0 °F 75.9 °F 72% 30.00 in 10.0 mi SSW 4.6 mph - N/A   Mostly Cloudy
5:52 PM 84.9 °F 92.1 °F 73.9 °F 69% 30.01 in 10.0 mi SSW 8.1 mph - N/A   Overcast
6:52 PM 84.0 °F 90.2 °F 73.0 °F 69% 30.00 in 10.0 mi SW 6.9 mph - N/A   Mostly Cloudy
7:52 PM 84.0 °F 90.2 °F 73.0 °F 69% 29.99 in 10.0 mi SW 5.8 mph - N/A   Mostly Cloudy
8:52 PM 82.9 °F 88.8 °F 73.0 °F 72% 29.99 in 10.0 mi SW 5.8 mph - N/A   Mostly Cloudy
9:52 PM 80.1 °F 84.5 °F 73.9 °F 81% 30.00 in 10.0 mi South 5.8 mph - N/A   Mostly Cloudy
10:52 PM 80.1 °F 84.2 °F 73.0 °F 79% 30.00 in 10.0 mi South 6.9 mph - N/A   Mostly Cloudy
11:52 PM 79.0 °F - 73.0 °F 82% 29.99 in 10.0 mi SSW 8.1 mph - N/A   Overcast